Location: Oklahoma City
(35.4680°N, 97.5160°W)
Time: 11:05:11
(UTC-06:00)

Envisat - Visible Passes

Search period start: 24 February 2024 00:00
Search period end: 05 March 2024 00:00
Orbit: 762 x 764 km, 98.3° (Epoch: 24 February)

Date Brightness Start Highest point End Pass type
(mag) Time Alt. Az. Time Alt. Az. Time Alt. Az.
01 Mar 5.5 04:26:49 10° N 04:27:07 12° N 04:27:07 12° N visible
02 Mar 5.7 03:49:20 10° NNE 03:49:31 11° NNE 03:49:31 11° NNE visible
03 Mar 5.3 04:51:44 10° NNW 04:52:06 12° NNW 04:52:06 12° NNW visible
04 Mar 5.3 04:13:47 10° N 04:14:31 14° N 04:14:31 14° N visible
